Find EUTELSAT 36D

NORAD ID: 59346 Int'l Des: 2024-059 Owner: EUTSA Country: F operational
HEOCIRCULARGSOGEO

Live Position

Loading 3D Globe...

About EUTELSAT 36D

Description loading...

Upcoming Passes

Passes for default location (London). Set your location on the main map for personalized predictions.

Altitude History

Loading altitude history...

Two-Line Element Set

1 59346U 24059A 26103.92267006 .00000159 00000-0 00000-0 0 9996
2 59346 0.0161 224.4321 0000167 311.9181 33.8021 1.00272385 7500
Epoch: Apr 13, 2026 • Age: 10 hours

Current Status

Altitude 35786.6 km
Velocity 3.07 km/s
Sub-Earth Point 0.03°N, 35.88°E
Launch Date Mar 30, 2024
Age 2 years
Type other

Technical Details

Classification Payload
Mass 5000.00 kg
Dry Mass 5000.00 kg
Total Mass 5000.00 kg
Length 8.00 m
Diameter 3.00 m
Span 40.00 m
Shape Box + 2 Pan
Manufacturer ADST/ADSUK
Bus Type Eurostar NEO
Phase Status In Orbit
Owner/State EUTSA/F

Most Searched